Regional Weather Roundup
Issued by NWS

Home | Current Version | Previous Version | Text Only | Print | Product List | Glossary On
Versions: 1 2 3 4 5 6 7 8 9 10 11 12 13 14 15 16 17 18 19 20 21 22 23 24 25 26 27 28 29 30 31 32 33 34 35 36 37 38 39 40 41 42 43 44 45 46 47 48 49 50
854
ASUS43 KMKX 162311
RWRWI

WISCONSIN REGIONAL WEATHER ROUNDUP
NATIONAL WEATHER SERVICE MILWAUKEE/SULLIVAN WI
500 PM CST MON JAN 16 2017

NOTE: "FAIR" INDICATES FEW OR NO CLOUDS BELOW 12,000 FEET WITH NO
SIGNIFICANT WEATHER AND/OR OBSTRUCTIONS TO VISIBILITY.

WIZ001-002-006>008-014>016-023>028-170000-
NORTHWEST WISCONSIN

CITY           SKY/WX    TMP DP  RH WIND       PRES   REMARKS
SUPERIOR ARPT  CLOUDY    25  17  72 CALM      30.08S
ASHLAND        CLOUDY    31  20  63 SE5       30.09S WCI  26
HAYWARD        CLOUDY    30  18  60 CALM      30.06S
SIREN          CLOUDY    29  20  70 CALM      30.06S
CUMBERLAND     CLOUDY    23  16  74 CALM      30.05S
RICE LAKE      CLOUDY    24  17  74 CALM      30.07F
CHETEK         CLOUDY    27  19  69 CALM      30.06F
LADYSMITH      CLOUDY    26  19  76 CALM      30.07F
EAU CLAIRE     MIX PCPN  30  19  63 E7        30.05F WCI  23
MENOMONIE      MIX PCPN  30  20  66 CALM      30.05F
NEW RICHMOND   CLOUDY    28  19  70 NE5       30.05S WCI  22
OSCEOLA        CLOUDY    30  19  65 NE3       30.08S
$$

WIZ003>005-009-010-017-018-170000-
NORTH CENTRAL WISCONSIN

CITY           SKY/WX    TMP DP  RH WIND       PRES   REMARKS
MANITOWISH WTR CLOUDY    24  18  77 CALM      30.06S
ARBOR VITAE    CLOUDY    31  23  72 CALM      30.06S
WOODRUFF       CLOUDY    31  23  72 CALM      30.06S
RHINELANDER    CLOUDY    30  19  63 CALM      30.07F
EAGLE RIVER    CLOUDY    28  21  76 CALM      30.06S
LAND O LAKES   CLOUDY    28  21  76 CALM      30.08S
PHILLIPS       CLOUDY    25  20  79 CALM      30.05S
TOMAHAWK       CLOUDY    28  19  69 CALM      30.07S
MEDFORD        CLOUDY    31  16  52 E5        30.05F WCI  26
MERRILL        CLOUDY    28  17  65 CALM        N/A
$$

WIZ029-030-035-036-043>047-170000-
CENTRAL WISCONSIN

CITY           SKY/WX    TMP DP  RH WIND       PRES   REMARKS
WAUSAU         CLOUDY    32  18  56 E3        30.07F
MOSINEE        CLOUDY    30  16  55 E7        30.08F WCI  23
MARSHFIELD     FRZ RAIN  29  21  72 E9        30.04F WCI  20
STEVENS POINT  MIX PCPN  27  23  82 E7        30.08F WCI  20
WAUPACA        MIX PCPN  32  27  81 CALM      30.10F
WAUTOMA        FRZ RAIN  31  29  92 NE8       30.08F FOG     WCI  23
WISC RAPIDS    MIX PCPN  30  29  96 E7        30.07F FOG     WCI  23
CAMP DOUGLAS   LGT RAIN  32  31  95 E6        30.04S WCI  27
$$

WIZ011>013-019>022-031-037>040-048>050-170000-
NORTHEAST WISCONSIN

CITY           SKY/WX    TMP DP  RH WIND       PRES   REMARKS
ANTIGO         CLOUDY    21  16  79 CALM      30.08F
SHAWANO        CLOUDY    29  24  80 CALM      30.13S
OCONTO         CLOUDY    28  18  65 CALM      30.14S
STURGEON BAY   CLOUDY    30  19  63 E3        30.15S
GREEN BAY      LGT RAIN  33  26  75 CALM      30.12F
MANITOWOC      LGT RAIN  33  30  88 MISG      30.13F FOG
APPLETON       LGT RAIN  30  25  80 NE5       30.09F WCI  25
CLINTONVILLE   MIX PCPN  30  23  74 CALM      30.12F
OSHKOSH        MIX PCPN  32  30  92 E7        30.09F FOG     WCI  26
$$

WIZ032>034-041-042-053>061-170000-
SOUTHWEST WISCONSIN

CITY           SKY/WX    TMP DP  RH WIND       PRES   REMARKS
LA CROSSE      RAIN      36  31  82 W3        30.02F
SPARTA         MIX PCPN  32  32  99 E6        30.04F WCI  26
VIROQUA        CLOUDY    32  32 100 E8        29.98F WCI  25
BOSCOBEL       LGT RAIN  34  32  92 NE7       30.00F FOG     WCI  28
PRAIRIE DU CHI CLOUDY    33  32  96 E8        29.97F WCI  26
PLATTEVILLE    CLOUDY    33  33 100 E13       29.96F WCI  24
$$

WIZ056-057-062-063-064-067-068-170000-
SOUTH CENTRAL WISCONSIN

CITY           SKY/WX    TMP DP  RH WIND       PRES   REMARKS
REEDSBURG      LGT RAIN  32  32 100 E6        30.03F WCI  26
BARABOO/DELLS  MIX PCPN  32  31  98 E10       30.03F WCI  24
LONE ROCK      LGT RAIN  34  31  88 E9        30.01F FOG     WCI  27
MINERAL POINT  LGT RAIN  34  34 100 E12       29.97S WCI  25
MADISON        LGT RAIN  33  32  96 E9        30.03F FOG     WCI  25
MIDDLETON      CLOUDY    34  34 100 E7        30.02F WCI  28
WATERTOWN      MIX PCPN  33  33 100 E6        30.06F WCI  27
MONROE         MIX PCPN  32  32 100 E9        29.99F VSB 1/2 WCI  24
JANESVILLE     LGT RAIN  36  36 100 E12       30.02F FOG     WCI  27
$$

WIZ051-052-058>065-066-070>072-170000-
SOUTHEAST WISCONSIN

CITY           SKY/WX    TMP DP  RH WIND       PRES   REMARKS
MILWAUKEE      RAIN      36  33  89 E12       30.09F FOG     WCI  28
WAUKESHA       LGT RAIN  32  30  93 E9        30.08F FOG     WCI  24
MILWAUKEE/TIMM LGT RAIN  34  30  86 E7        30.10F FOG     WCI  28
RACINE         LGT RAIN  36  34  92 E10       30.09F FOG     WCI  28
KENOSHA        LGT RAIN  36  34  92 E8        30.07F VSB 1/2 WCI  30
FOND DU LAC    LGT RAIN  34  30  85 E7        30.08F FOG     WCI  28
SHEBOYGAN      LGT RAIN  33  31  92 E7        30.11F FOG     WCI  27
WEST BEND      LGT RAIN  32  32 100 E8        30.08F WCI  25
JUNEAU         RAIN      32  32  99 E8        30.07F WCI  25
$$

LSZ147-162-170000-
LAKE SUPERIOR

STATION/POSITION TIME  TEMP    WIND        PRES    WAVE
                       AIR SEA DIR/SP/G            HT/PER
                 (UTC) (F)     (DEG/KT/KT) (MB)    (FT/S)
DEVILS ISLAND    2300   32     170/  6/  7 1019.3S
PORT WING        2230   29     220/  2/  3 1018.6S
SAXON HARBOR     2230   27     180/  2/  2 1019.0S
$$

LMZ867-665-643>646-170000-
LAKE MICHIGAN

STATION/POSITION TIME  TEMP    WIND        PRES    WAVE
                       AIR SEA DIR/SP/G            HT/PER
                 (UTC) (F)     (DEG/KT/KT) (MB)    (FT/S)
NORTHPORT PIER   2240   29        CALM     1020.7F
SISTER BAY       2250   31     170/  7/  9   N/A
ALGOMA LAKESHORE 2238             CALM       N/A
KEWAUNEE LAKESHO 2248   31        CALM     1020.1F
SHEBOYGAN LAKESH 2300   34      90/  9/ 10 1020.4F
PORT WASHINGTON  2230   35      90/  8/ 11 1020.7S
MILWAUKEE LAKESH 2250   35      80/ 12/ 12   N/A
KENOSHA   LAKESH 2300   35     100/  9/ 10 1018.3
$$

TC  - TEMPERATURE IN CELSIUS
VSB - VISIBILITY IN STATUTE MILES
WCI - WIND CHILL INDEX
HX  - HEAT INDEX





USA.gov is the U.S. government's official web portal to all federal, state and local government web resources and services.